Location: eljas
(40.1958°N, 6.8661°W)
Time: 04:25:35
(UTC+02:00)

Amateur Radio Satellites - All Passes

Search period start: 28 March 2017 03:55
Search period end: 29 March 2017 03:55
Location: eljas, 40.1958°N, 6.8661°W

Satellite Date Start Highest point End Downlink Frequencies (MHz)
Time Altitude Azimuth
UKube-1 28 Mar 04:07:24 04:09:02 12° 269° (W) 04:10:42 .
Tancredo 1 28 Mar 04:09:09 04:12:16 46° 33° (NNE) 04:15:21 437.200
ISS 28 Mar 04:15:00 04:18:12 47° 32° (NNE) 04:21:25 437.550
Oscar 19 28 Mar 04:15:30 04:20:40 75° 286° (WNW) 04:25:50 437.125/150
AO-7 28 Mar 04:15:35 04:17:34 11° 87° (E) 04:19:33 .
ITAMSAT 1 28 Mar 04:28:32 04:30:37 12° 90° (E) 04:32:41 435.822/435.867
BEESAT 28 Mar 04:39:14 04:44:00 78° 257° (WSW) 04:48:48 436.000
Gurwin Techsat 1B 28 Mar 04:40:24 04:45:44 78° 286° (WNW) 04:51:02 435.225
MOZHAYETS 4 28 Mar 04:44:41 04:49:05 47° 72° (ENE) 04:53:29
ITUPSAT 1 28 Mar 04:56:32 05:01:13 53° 260° (W) 05:05:55 437.325
O/OREOS (USA 219) 28 Mar 05:08:29 05:12:43 36° 255° (WSW) 05:16:55 437.305
CUBESAT XI-V 28 Mar 05:40:59 05:44:58 30° 69° (ENE) 05:48:57 437.345
Tancredo 1 28 Mar 05:45:54 05:48:08 18° 228° (SW) 05:50:23 437.200
ISS 28 Mar 05:52:04 05:54:26 18° 229° (SW) 05:56:48 437.550
KKS-1 28 Mar 05:52:36 05:56:58 54° 73° (ENE) 06:01:21 437.445
AO-7 28 Mar 06:03:27 06:11:44 68° 105° (ESE) 06:19:58 .
ITAMSAT 1 28 Mar 06:05:25 06:10:37 75° 286° (WNW) 06:15:46 435.822/435.867
MOZHAYETS 4 28 Mar 06:23:34 06:26:28 16° 268° (W) 06:29:22
Gurwin Techsat 1B 28 Mar 06:23:53 06:24:46 10° 303° (WNW) 06:25:38 435.225
STARS 28 Mar 06:24:51 06:29:09 53° 73° (ENE) 06:33:29 437.465
AO-85 28 Mar 06:34:14 06:37:37 27° 50° (NE) 06:41:03 145.980
CUBESAT XI-V 28 Mar 07:18:30 07:22:18 25° 265° (W) 07:26:08 437.345
KKS-1 28 Mar 07:31:37 07:33:50 13° 269° (W) 07:36:04 437.445
XW-2F 28 Mar 07:33:01 07:33:22 10° 91° (E) 07:33:44 145.980 - 146.000
LilacSat-2 28 Mar 07:35:49 07:37:31 13° 92° (E) 07:39:14 437.200
YUBILEINY 28 Mar 07:47:05 07:52:02 17° 77° (ENE) 07:56:59 435.215
M-CUBED/EXP-1 PRIME 28 Mar 07:51:50 07:55:31 87° 253° (WSW) 07:59:34 437.505
NUDT-PHONESAT 28 Mar 07:52:21 07:54:33 15° 93° (E) 07:56:44 437.300
AO-7 28 Mar 07:57:09 08:03:50 28° 304° (NW) 08:10:32 .
XW-2D 28 Mar 07:57:31 08:00:33 23° 95° (E) 08:03:34 145.860 - 145.880
KAITUO 1B 28 Mar 08:01:04 08:03:49 20° 94° (E) 08:06:34 145.475/437.950
BEESAT 3 28 Mar 08:03:16 08:06:40 25° 49° (NE) 08:10:01 437.485
XW-2B 28 Mar 08:03:22 08:06:34 26° 96° (E) 08:09:45 145.730 - 145.750
STARS 28 Mar 08:03:34 08:05:48 14° 269° (W) 08:08:02 437.465
CUTE-I 28 Mar 08:05:53 08:10:33 30° 96° (E) 08:15:09 437.470
NO-84 28 Mar 08:12:50 08:15:43 80° 134° (SE) 08:18:34 435.350 FM
XW-2C 28 Mar 08:13:24 08:16:53 35° 98° (E) 08:20:20 145.795 - 145.815
AO-85 28 Mar 08:14:37 08:17:54 25° 246° (WSW) 08:21:18 145.980
DOVE 4 28 Mar 08:15:11 08:20:28 60° 100° (E) 08:25:34 437.250
BEESAT 2 28 Mar 08:22:36 08:25:26 18° 45° (NE) 08:28:16 435.950
HO-68 28 Mar 08:29:06 08:32:15 13° 88° (E) 08:35:23 435.675
STRAND 1 28 Mar 08:45:08 08:50:12 61° 73° (ENE) 08:55:17 437.568
XW-2F 28 Mar 09:04:11 09:07:48 48° 286° (WNW) 09:11:23 145.980 - 146.000
CUTE 1.7 + AOD 2 28 Mar 09:05:26 09:08:19 18° 93° (E) 09:11:11 437.475
LilacSat-2 28 Mar 09:08:27 09:11:59 40° 287° (WNW) 09:15:31 437.200
XW-2A 28 Mar 09:12:55 09:15:40 22° 96° (E) 09:18:22 145.665 - 145.685
NUDT-PHONESAT 28 Mar 09:25:16 09:28:34 31° 288° (WNW) 09:31:50 437.300
XW-2D 28 Mar 09:31:44 09:34:38 22° 291° (WNW) 09:37:33 145.860 - 145.880
KAITUO 1B 28 Mar 09:34:46 09:37:48 25° 290° (WNW) 09:40:50 145.475/437.950
XW-2B 28 Mar 09:37:52 09:40:35 19° 291° (WNW) 09:43:18 145.730 - 145.750
YUBILEINY 28 Mar 09:38:44 09:47:30 89° 96° (E) 09:56:16 435.215
BEESAT 3 28 Mar 09:40:44 09:44:15 29° 246° (WSW) 09:47:42 437.485
CUTE-I 28 Mar 09:45:46 09:50:33 34° 292° (WNW) 09:55:19 437.470
XW-2C 28 Mar 09:48:38 09:50:46 15° 293° (WNW) 09:52:54 145.795 - 145.815
NO-84 28 Mar 09:52:25 09:53:37 12° 334° (NNW) 09:54:49 435.350 FM
DOVE 4 28 Mar 09:54:04 09:57:36 18° 297° (WNW) 10:01:05 437.250
BEESAT 2 28 Mar 09:59:33 10:03:28 47° 243° (WSW) 10:07:20 435.950
UWE-3 28 Mar 10:03:02 10:06:17 21° 93° (E) 10:09:28 435.000/436.395/437.385
AAUSAT CUBESAT 2 28 Mar 10:10:07 10:13:46 29° 96° (E) 10:17:24 437.432
HO-68 28 Mar 10:13:43 10:20:56 83° 105° (ESE) 10:28:07 435.675
FO-29 28 Mar 10:23:28 10:28:00 17° 58° (ENE) 10:32:21 435.910
PRISM 28 Mar 10:24:14 10:27:22 22° 67° (ENE) 10:30:30 437.425
STRAND 1 28 Mar 10:26:45 10:29:45 15° 269° (W) 10:32:46 437.568
Oscar 11 28 Mar 10:29:48 10:32:52 19° 93° (E) 10:35:54 .
SEEDS 28 Mar 10:30:07 10:34:19 74° 284° (WNW) 10:38:30 437.485
PCSat 28 Mar 10:33:06 10:37:58 35° 110° (ESE) 10:42:53 145.827
CUBEBUG 2 28 Mar 10:39:20 10:43:45 88° 283° (WNW) 10:48:00 437.445
ZACube-1 28 Mar 10:39:45 10:43:29 30° 96° (E) 10:47:08 437.345
CUTE 1.7 + AOD 2 28 Mar 10:40:22 10:44:15 36° 288° (WNW) 10:48:08 437.475
XW-2A 28 Mar 10:45:56 10:48:16 18° 291° (WNW) 10:50:34 145.665 - 145.685
AO-73 28 Mar 11:06:53 11:11:02 57° 100° (E) 11:15:05 145.935
DELFI C3 28 Mar 11:15:38 11:18:18 17° 93° (E) 11:20:58 145.870
TIGRISAT 28 Mar 11:30:41 11:35:17 57° 74° (ENE) 11:39:51 435.000
UWE-3 28 Mar 11:39:00 11:42:47 31° 290° (WNW) 11:46:29 435.000/436.395/437.385
YUBILEINY 28 Mar 11:39:44 11:45:30 19° 297° (WNW) 11:51:19 435.215
UNISAT 6 28 Mar 11:41:17 11:45:58 80° 76° (ENE) 11:50:39 437.425
AAUSAT CUBESAT 2 28 Mar 11:45:52 11:49:04 22° 292° (WNW) 11:52:15 437.432
PRISM 28 Mar 11:58:56 12:02:28 28° 263° (W) 12:06:03 437.425
HO-68 28 Mar 12:02:58 12:07:48 20° 304° (WNW) 12:12:38 435.675
AIST 2D 28 Mar 12:03:48 12:05:45 14° 67° (ENE) 12:07:42 435.315
FO-29 28 Mar 12:04:13 12:12:04 81° 74° (ENE) 12:19:24 435.910
Oscar 11 28 Mar 12:05:09 12:09:05 36° 289° (WNW) 12:13:01 .
ZACube-1 28 Mar 12:16:24 12:19:34 21° 293° (WNW) 12:22:43 437.345
PCSat 28 Mar 12:16:29 12:21:21 33° 308° (NW) 12:26:15 145.827
POLYITAN 1 28 Mar 12:21:00 12:23:47 17° 66° (ENE) 12:26:33 437.675
QB50P2 28 Mar 12:25:17 12:28:26 20° 67° (ENE) 12:31:35 145.880/145.840
DUCHIFAT 1 28 Mar 12:34:51 12:37:55 20° 67° (ENE) 12:40:59 145.980
AO-73 28 Mar 12:45:06 12:46:44 12° 297° (WNW) 12:48:22 145.935
DELFI C3 28 Mar 12:49:34 12:53:10 33° 288° (WNW) 12:56:46 145.870
ESTCUBE 1 28 Mar 13:04:06 13:07:25 20° 94° (E) 13:10:44 437.505/2401.250
TIGRISAT 28 Mar 13:09:47 13:12:16 14° 269° (W) 13:14:45 435.000
RS-15 28 Mar 13:13:14 13:23:44 38° 105° (ESE) 13:34:32 29.354- 29.394
NANOSAT C BR1 28 Mar 13:20:29 13:24:43 70° 75° (ENE) 13:28:58 145.865
EO-79 28 Mar 13:26:10 13:30:26 89° 82° (E) 13:34:45 145.935-145.965
AIST 2D 28 Mar 13:35:29 13:38:41 32° 263° (W) 13:41:54 435.315
LO-87 28 Mar 13:52:04 13:55:36 48° 286° (WNW) 13:59:07 145.935 - 145.965
FO-29 28 Mar 13:52:16 13:57:35 20° 270° (W) 14:02:45 435.910
Oscar 19 28 Mar 13:54:32 13:58:01 19° 63° (ENE) 14:01:29 437.125/150
POLYITAN 1 28 Mar 13:55:08 13:59:13 42° 261° (W) 14:03:18 437.675
QB50P2 28 Mar 14:00:04 14:03:59 34° 263° (W) 14:07:54 145.880/145.840
VELOX 1 28 Mar 14:08:28 14:12:23 29° 96° (E) 14:16:15 145.980
DUCHIFAT 1 28 Mar 14:09:26 14:13:20 35° 262° (W) 14:17:16 145.980
BUGSAT 1 28 Mar 14:17:42 14:21:56 88° 263° (W) 14:26:12 437.445
Gurwin Techsat 1B 28 Mar 14:22:53 14:26:43 21° 63° (ENE) 14:30:33 435.225
50 SAT 28 Mar 14:38:51 14:42:10 37° 99° (E) 14:45:27 437.505
SPROUT 28 Mar 14:38:53 14:43:07 56° 101° (E) 14:47:18 437.525
ESTCUBE 1 28 Mar 14:40:10 14:44:19 37° 289° (WNW) 14:48:28 437.505/2401.250
NO-84 28 Mar 14:46:43 14:49:41 37° 38° (NE) 14:52:51 435.350 FM
SO-50 28 Mar 15:07:29 15:10:33 18° 110° (ESE) 15:13:37 436.795
AO-7 28 Mar 15:12:39 15:18:11 20° 51° (NE) 15:23:42 .
DX 1 28 Mar 15:15:20 15:19:43 64° 101° (ESE) 15:24:04 434.975-435.025
RS-15 28 Mar 15:23:34 15:35:31 66° 308° (NW) 15:47:53 29.354- 29.394
Oscar 19 28 Mar 15:31:54 15:36:53 54° 259° (W) 15:41:55 437.125/150
VELOX 1 28 Mar 15:45:02 15:48:42 25° 292° (WNW) 15:52:21 145.980
ITAMSAT 1 28 Mar 15:45:11 15:48:55 20° 63° (ENE) 15:52:40 435.822/435.867
UKube-1 28 Mar 15:51:41 15:56:01 71° 285° (WNW) 16:00:20 .
Gurwin Techsat 1B 28 Mar 16:01:05 16:06:15 52° 260° (W) 16:11:27 435.225
50 SAT 28 Mar 16:13:18 16:14:51 12° 294° (WNW) 16:16:23 437.505
SPROUT 28 Mar 16:16:31 16:18:31 13° 296° (WNW) 16:20:31 437.525
NO-84 28 Mar 16:24:40 16:27:05 19° 231° (SW) 16:29:38 435.350 FM
BEESAT 28 Mar 16:40:17 16:44:19 27° 96° (E) 16:48:20 436.000
MOZHAYETS 4 28 Mar 16:42:37 16:43:52 11° 90° (E) 16:45:08
SO-50 28 Mar 16:46:06 16:50:38 51° 306° (NW) 16:55:08 436.795
DX 1 28 Mar 16:53:30 16:55:21 12° 298° (WNW) 16:57:10 434.975-435.025
ITUPSAT 1 28 Mar 16:57:30 17:01:59 39° 99° (E) 17:06:25 437.325
AO-7 28 Mar 17:01:27 17:09:47 85° 71° (ENE) 17:18:09 .
ITAMSAT 1 28 Mar 17:22:54 17:27:58 52° 260° (W) 17:33:06 435.822/435.867
RS-15 28 Mar 17:41:15 17:51:05 27° 337° (NNW) 18:01:02 29.354- 29.394
O/OREOS (USA 219) 28 Mar 17:41:18 17:45:04 27° 103° (ESE) 17:48:53 437.305
KKS-1 28 Mar 17:46:48 17:47:46 11° 90° (E) 17:48:45 437.445
MOZHAYETS 4 28 Mar 18:16:56 18:21:28 67° 286° (WNW) 18:25:58
BEESAT 28 Mar 18:17:54 18:22:03 31° 292° (WNW) 18:26:11 436.000
ITUPSAT 1 28 Mar 18:35:57 18:39:32 22° 295° (WNW) 18:43:07 437.325
XW-2D 28 Mar 18:39:58 18:41:19 12° 65° (ENE) 18:42:41 145.860 - 145.880
XW-2B 28 Mar 18:45:27 18:47:16 13° 66° (ENE) 18:49:05 145.730 - 145.750
XW-2C 28 Mar 18:54:56 18:57:28 17° 68° (ENE) 18:59:59 145.795 - 145.815
AO-7 28 Mar 18:57:57 19:03:25 19° 268° (W) 19:08:57 .
HO-68 28 Mar 19:00:24 19:02:01 11° 49° (NE) 19:03:38 435.675
CUBESAT XI-V 28 Mar 19:14:20 19:19:01 81° 104° (ESE) 19:23:41 437.345
DOVE 4 28 Mar 19:19:38 19:24:13 52° 73° (ENE) 19:29:05 437.250
KKS-1 28 Mar 19:20:18 19:24:47 68° 285° (WNW) 19:29:12 437.445
O/OREOS (USA 219) 28 Mar 19:20:25 19:24:22 29° 300° (WNW) 19:28:22 437.305
PCSat 28 Mar 19:21:18 19:25:56 28° 50° (NE) 19:30:32 145.827
CUTE-I 28 Mar 19:26:54 19:32:00 46° 70° (ENE) 19:37:09 437.470
XW-2F 28 Mar 19:43:59 19:47:45 67° 76° (ENE) 19:51:30 145.980 - 146.000
LilacSat-2 28 Mar 19:49:04 19:52:54 85° 72° (ENE) 19:56:43 437.200
YUBILEINY 28 Mar 19:49:52 19:58:04 43° 74° (ENE) 20:06:13 435.215
STARS 28 Mar 19:50:44 19:55:10 73° 285° (WNW) 19:59:32 437.465
CUTE 1.7 + AOD 2 28 Mar 19:58:48 20:00:34 12° 64° (ENE) 20:02:22 437.475
RS-15 28 Mar 20:00:24 20:09:36 23° 13° (NNE) 20:18:39 29.354- 29.394
NUDT-PHONESAT 28 Mar 20:03:16 20:07:01 83° 258° (WSW) 20:10:46 437.300
XW-2D 28 Mar 20:11:23 20:15:04 49° 260° (W) 20:18:46 145.860 - 145.880
KAITUO 1B 28 Mar 20:13:18 20:17:00 60° 259° (W) 20:20:42 145.475/437.950
XW-2B 28 Mar 20:17:28 20:21:05 42° 261° (W) 20:24:43 145.730 - 145.750
XW-2C 28 Mar 20:28:00 20:31:25 31° 263° (W) 20:34:50 145.795 - 145.815
HO-68 28 Mar 20:41:18 20:48:15 58° 69° (ENE) 20:55:13 435.675
Tancredo 1 28 Mar 20:45:54 20:47:57 16° 131° (SE) 20:50:01 437.200
CUBESAT XI-V 28 Mar 20:54:27 20:55:42 11° 299° (WNW) 20:56:57 437.345
ISS 28 Mar 20:55:13 20:57:32 18° 132° (SE) 20:59:52 437.550
STRAND 1 28 Mar 20:57:00 21:00:51 21° 94° (E) 21:04:41 437.568
DOVE 4 28 Mar 20:59:19 21:02:16 16° 271° (W) 21:05:19 437.250
UWE-3 28 Mar 20:59:26 21:02:38 19° 66° (ENE) 21:05:48 435.000/436.395/437.385
AAUSAT CUBESAT 2 28 Mar 21:00:16 21:03:08 19° 67° (ENE) 21:06:00 437.432
PCSat 28 Mar 21:04:20 21:09:29 44° 248° (WSW) 21:14:36 145.827
M-CUBED/EXP-1 PRIME 28 Mar 21:04:33 21:09:14 78° 107° (ESE) 21:13:54 437.505
CUTE-I 28 Mar 21:08:10 21:12:15 22° 267° (W) 21:16:22 437.470
XW-2A 28 Mar 21:15:26 21:18:50 59° 259° (W) 21:22:16 145.665 - 145.685
SEEDS 28 Mar 21:20:47 21:24:54 68° 76° (ENE) 21:29:02 437.485
Oscar 11 28 Mar 21:24:52 21:27:13 14° 64° (ENE) 21:29:33 .
CUTE 1.7 + AOD 2 28 Mar 21:31:47 21:35:55 57° 260° (W) 21:40:04 437.475
ZACube-1 28 Mar 21:34:47 21:38:28 25° 69° (ENE) 21:42:06 437.345
CUBEBUG 2 28 Mar 21:35:49 21:40:33 71° 76° (ENE) 21:45:16 437.445
YUBILEINY 28 Mar 21:46:51 21:54:44 41° 273° (W) 22:02:38 435.215
AO-73 28 Mar 22:01:12 22:05:28 42° 72° (ENE) 22:09:40 145.935
RS-15 28 Mar 22:14:22 22:26:15 49° 45° (NE) 22:37:36 29.354- 29.394
Tancredo 1 28 Mar 22:20:43 22:23:47 49° 327° (NNW) 22:26:54 437.200
AO-85 28 Mar 22:27:29 22:31:55 78° 302° (WNW) 22:36:05 145.980
HO-68 28 Mar 22:30:33 22:36:19 26° 266° (W) 22:42:07 435.675
ISS 28 Mar 22:30:36 22:33:45 46° 327° (NNW) 22:36:57 437.550
UWE-3 28 Mar 22:34:17 22:38:44 44° 261° (W) 22:43:09 435.000/436.395/437.385
AAUSAT CUBESAT 2 28 Mar 22:34:37 22:38:20 34° 263° (W) 22:42:06 437.432
STRAND 1 28 Mar 22:35:22 22:40:13 44° 290° (WNW) 22:45:00 437.568
M-CUBED/EXP-1 PRIME 28 Mar 22:40:54 22:43:02 13° 303° (WNW) 22:45:10 437.505
Oscar 11 28 Mar 22:58:42 23:02:54 51° 260° (W) 23:07:07 .
ZACube-1 28 Mar 23:10:34 23:14:35 30° 264° (W) 23:18:34 437.345
CUBEBUG 2 28 Mar 23:16:00 23:17:35 11° 271° (W) 23:19:10 437.445
TIGRISAT 28 Mar 23:25:16 23:26:41 11° 90° (E) 23:28:04 435.000
BEESAT 3 28 Mar 23:29:20 23:33:06 48° 117° (ESE) 23:36:56 437.485
DELFI C3 28 Mar 23:33:44 23:37:37 66° 259° (W) 23:41:33 145.870
UNISAT 6 28 Mar 23:34:56 23:37:43 16° 92° (E) 23:40:28 437.425
SO-50 28 Mar 23:38:28 23:41:21 16° 42° (NE) 23:44:14 436.795
AO-73 28 Mar 23:38:49 23:41:51 17° 267° (W) 23:44:51 145.935
PRISM 28 Mar 23:40:09 23:44:02 36° 98° (E) 23:47:53 437.425
BEESAT 2 28 Mar 23:50:19 23:53:48 31° 115° (ESE) 23:57:21 435.950
Tancredo 1 28 Mar 23:58:46 00:00:30 14° 346° (NNW) 00:02:15 437.200
ESTCUBE 1 29 Mar 00:03:31 00:06:31 18° 65° (ENE) 00:09:32 437.505/2401.250
ISS 29 Mar 00:09:02 00:10:52 14° 347° (NNW) 00:12:43 437.550
AO-85 29 Mar 00:12:15 00:12:56 10° 320° (NW) 00:13:38 145.980
LO-87 29 Mar 00:27:11 00:30:42 55° 75° (ENE) 00:34:16 145.935 - 145.965
RS-15 29 Mar 00:27:16 00:38:59 56° 249° (WSW) 00:50:10 29.354- 29.394
TIGRISAT 29 Mar 00:59:27 01:03:46 59° 286° (WNW) 01:07:59 435.000
FO-29 29 Mar 01:00:53 01:06:47 73° 102° (ESE) 01:12:06 435.910
AIST 2D 29 Mar 01:01:40 01:04:02 17° 94° (E) 01:06:23 435.315
VELOX 1 29 Mar 01:05:19 01:08:53 25° 68° (ENE) 01:12:29 145.980
NANOSAT C BR1 29 Mar 01:07:39 01:08:59 11° 90° (E) 01:10:19 145.865
BEESAT 3 29 Mar 01:08:19 01:10:58 17° 315° (NW) 01:13:38 437.485
UNISAT 6 29 Mar 01:10:30 01:14:38 41° 288° (WNW) 01:18:41 437.425
EO-79 29 Mar 01:12:47 01:15:10 15° 92° (E) 01:17:34 145.935-145.965
50 SAT 29 Mar 01:13:05 01:14:57 14° 67° (ENE) 01:16:49 437.505
PRISM 29 Mar 01:16:09 01:19:02 18° 294° (WNW) 01:21:54 437.425
SO-50 29 Mar 01:17:49 01:22:17 68° 240° (WSW) 01:26:44 436.795
BEESAT 2 29 Mar 01:28:21 01:31:36 24° 312° (NW) 01:34:54 435.950
SPROUT 29 Mar 01:31:27 01:35:27 39° 71° (ENE) 01:39:28 437.525
Tancredo 1 29 Mar 01:36:37 01:37:43 11° 6° (N) 01:38:48 437.200
ESTCUBE 1 29 Mar 01:38:44 01:42:59 43° 261° (W) 01:47:16 437.505/2401.250
POLYITAN 1 29 Mar 01:40:33 01:44:18 30° 97° (E) 01:48:01 437.675
QB50P2 29 Mar 01:45:09 01:49:06 37° 98° (E) 01:53:00 145.880/145.840
ISS 29 Mar 01:47:02 01:48:26 12° 7° (N) 01:49:52 437.550
DUCHIFAT 1 29 Mar 01:53:42 01:57:34 35° 97° (E) 02:01:24 145.980
BUGSAT 1 29 Mar 02:01:39 02:03:47 14° 91° (E) 02:05:53 437.445
DX 1 29 Mar 02:10:01 02:14:12 50° 73° (ENE) 02:18:27 434.975-435.025
AIST 2D 29 Mar 02:34:21 02:37:14 25° 289° (WNW) 02:40:07 435.315
NANOSAT C BR1 29 Mar 02:40:54 02:45:03 57° 286° (WNW) 02:49:09 145.865
VELOX 1 29 Mar 02:41:21 02:45:12 29° 264° (W) 02:49:05 145.980
50 SAT 29 Mar 02:44:36 02:47:42 31° 262° (W) 02:50:50 437.505
UKube-1 29 Mar 02:45:07 02:49:25 88° 78° (ENE) 02:53:46 .
EO-79 29 Mar 02:47:07 02:51:10 44° 288° (WNW) 02:55:10 145.935-145.965
FO-29 29 Mar 02:47:42 02:51:01 16° 303° (WNW) 02:54:11 435.910
SPROUT 29 Mar 03:08:38 03:11:29 17° 267° (W) 03:14:22 437.525
Tancredo 1 29 Mar 03:11:55 03:14:41 26° 26° (NNE) 03:17:27 437.200
POLYITAN 1 29 Mar 03:16:40 03:19:54 22° 293° (WNW) 03:23:08 437.675
QB50P2 29 Mar 03:21:41 03:24:36 18° 294° (WNW) 03:27:30 145.880/145.840
ISS 29 Mar 03:22:49 03:25:45 29° 27° (NNE) 03:28:41 437.550
DUCHIFAT 1 29 Mar 03:30:01 03:32:59 19° 294° (WNW) 03:35:57 145.980
BUGSAT 1 29 Mar 03:35:24 03:39:24 46° 287° (WNW) 03:43:19 437.445
Oscar 19 29 Mar 03:43:45 03:48:51 55° 101° (E) 03:53:55 437.125/150
MOZHAYETS 4 29 Mar 03:44:31 03:45:52 11° 62° (ENE) 03:47:14
BEESAT 29 Mar 03:46:03 03:50:11 30° 68° (ENE) 03:54:20 436.000
DX 1 29 Mar 03:48:26 03:50:40 14° 268° (W) 03:52:55 434.975-435.025
